Regional Weather Roundup
Issued by NWS Sterling, VA

Home | Current Version | Previous Version | Graphics & Text | Print | Product List | Glossary On
Versions: 1 2 3 4 5 6 7 8 9 10 11 12 13 14 15 16 17 18 19 20 21 22 23 24 25 26 27 28 29 30 31 32 33 34 35 36 37 38 39 40 41 42 43 44 45 46 47 48 49 50
000
ASUS41 KLWX 211310
RWRLWX

REGIONAL WEATHER ROUNDUP
NATIONAL WEATHER SERVICE BALTIMORE MD/WASHINGTON DC
900 AM EDT SUN SEP 21 2014

Note: "FAIR" indicates few or no clouds below 12,000 feet
with no significant weather and/or obstructions to visibility.
 TC=TEMPERATURE CELSIUS

 * =Non NWS site. Station does not report precipitation (e.g. rain,
    snow, etc.), thunder, or fog.

DCZ001-MDZ009-015-VAZ040>042-051-053>054-211400-
WASHINGTON METRO

CITY           SKY/WX    TMP DP  RH WIND       PRES   REMARKS
WASHINGTON NAT CLOUDY    67  61  81 E5        29.88F
DULLES         LGT RAIN  62  59  90 W3        29.88F
ANDREWS AFB    PTSUNNY   64  64  98 E2        29.89F
QUANTICO       PTSUNNY   62  60  93 NW3       29.89F
COLLEGE PARK*  PTSUNNY   63  63 100 CALM      29.88F
LEESBURG*      SUNNY     61  61 100 CALM      29.89F
MANASSAS*      SUNNY     57  57 100 W3        29.88F
GAITHERSBURG*  SUNNY     61  59  94 CALM      29.92F

$$

MDZ006>007-011-014-211400-
BALTIMORE METRO

CITY           SKY/WX    TMP DP  RH WIND       PRES   REMARKS
BWI AIRPORT    CLOUDY    63  62  97 CALM      29.88F FOG
MD SCIENCE CTR   N/A     67  62  84 MISG      29.89F
ANNAPOLIS      CLOUDY    67  64  90 N5        29.88F FOG
FORT MEADE*    CLOUDY    61  59  94 SE3       29.90F VSB 1/4

$$

MDZ012-015-019>023-211400-
MARYLAND EASTERN SHORE

CITY           SKY/WX    TMP DP  RH WIND       PRES   REMARKS
OCEAN CITY     CLOUDY   N/A N/A N/A N6        29.83F HAZE
SALISBURY      CLOUDY    72  70  94 NE3       29.84F FOG
BAY BRIDGE AP*   N/A     68  66  94 N3        29.88F
CAMBRIDGE*     CLOUDY    70  64  83 N3        29.86F
EASTON*        FOG       66  66 100 CALM      29.90F VSB 1/2

$$

MDZ017>025-211400-
SOUTHERN MARYLAND

CITY           SKY/WX    TMP DP  RH WIND       PRES   REMARKS
PATUXENT RIVER CLOUDY    69  65  86 NE7       29.86F
ST INIGOES     CLOUDY    70  64  81 NE3       29.86F
LEONARDTOWN*   CLOUDY    64  63  94 CALM      29.88F

$$

MDZ003>005-211400-
NORTH CENTRAL MARYLAND

CITY           SKY/WX    TMP DP  RH WIND       PRES   REMARKS
FREDERICK*     SUNNY     63  61  94 CALM      29.92S
HAGERSTOWN APT SUNNY     63  58  83 VRB3      29.89R
WESTMINSTER*   SUNNY     63  61  94 SE3       29.89S

$$

MDZ501>502-211400-
WESTERN MARYLAND

CITY           SKY/WX    TMP DP  RH WIND       PRES   REMARKS
OAKLAND*       MOSUNNY   61 N/A N/A SW10      29.94F
CUMBERLAND*    SUNNY     64  59  82 CALM      29.91F

$$

VAZ025>031-211400-
SHENANDOAH VALLEY

CITY           SKY/WX    TMP DP  RH WIND       PRES   REMARKS
WINCHESTER*    SUNNY     64  57  77 SW3       29.88S
STAUNTON*      SUNNY     60  55  84 SW3       29.94F

$$

WVZ021-048>050-054>055-211400-
EASTERN WEST VIRGINIA PANHANDLE

CITY           SKY/WX    TMP DP  RH WIND       PRES   REMARKS
MARTINSBURG    SUNNY     61  56  83 W6        29.89S
PETERSBURG*    SUNNY     61  56  85 CALM      29.90F

$$

VAZ036>039-050-211400-
CENTRAL FOOTHILLS

CITY           SKY/WX    TMP DP  RH WIND       PRES   REMARKS
CHARLOTTESVILL SUNNY     62  58  86 CALM      29.89F
ORANGE*        SUNNY     59  57  94 CALM      29.90F

$$

VAZ055>057-211400-
NORTH AND CENTRAL PIEDMONT

CITY           SKY/WX    TMP DP  RH WIND       PRES   REMARKS
FREDERICKSBRG* MOSUNNY   61  61 100 CALM      29.88S
STAFFORD*      MOSUNNY   59  59 100 CALM      29.92F

$$

NCZ024-NYZ072-PAZ021-071-VAZ022-071-211400-
OTHER REGIONAL OBSERVATIONS

CITY           SKY/WX    TMP DP  RH WIND       PRES   REMARKS
NEW YORK CITY  CLOUDY    69  66  90 CALM      29.91F FOG
PHILADELPHIA   CLOUDY    69  65  86 NE5       29.89F FOG
PITTSBURGH     LGT RAIN  69  63  81 SW12      29.79S
ROANOKE        MOSUNNY   63  57  81 W10       29.96F
RICHMOND       PTSUNNY   65  62  90 CALM      29.89S
RALEIGH        MOSUNNY   66  61  84 N5        29.92R

$$

ANZ530>537-211400-
MARINE OBSERVATIONS

STATION/POSITION TIME  TEMP    WIND        PRES
                       AIR SEA DIR/SP/G
                 (UTC) (F)     (DEG/KT/KT) (MB)
THOMAS PT LIGHT  1300   67 73   10/  6/  7 1012.8F
BALT KEY BRIDGE  1300   66      40/  5/  5 1011.9F
COVE POINT       1300   69      40/  8/ 10 1011.3S
LEWISETTA        1300   70 73   10/  5/  8 1010.9F
SOLOMONS ISLAND  1300      76                N/A
PINEY POINT      1300           60/  2/  3   N/A

$$




USA.gov is the U.S. government's official web portal to all federal, state and local government web resources and services.